Regional Weather Roundup
Issued by NWS

Home | Current Version | Previous Version | Graphics & Text | Print | Product List | Glossary On
Versions: 1 2 3 4 5 6 7 8 9 10 11 12 13 14 15 16 17 18 19 20 21 22 23 24 25 26 27 28 29 30 31 32 33 34 35 36 37 38 39 40 41 42 43 44 45 46 47 48 49 50
000
ASUS43 KLOT 230204
RWRIL

ILLINOIS REGIONAL WEATHER ROUNDUP
NATIONAL WEATHER SERVICE CHICAGO/ROMEOVILLE IL
900 PM CDT THU JUN 22 2017

NOTE: "FAIR" INDICATES FEW OR NO CLOUDS BELOW 12,000 FEET WITH NO
SIGNIFICANT WEATHER AND/OR OBSTRUCTIONS TO VISIBILITY.

* THESE STATIONS ARE NOT UNDER NWS QUALITY CONTROL. THEY ALSO MAY NOT
  REPORT WEATHER SUCH AS PRECIPITATION OR FOG.

ILZ001-002-007-009-015-016-024-230300-
NORTHWEST ILLINOIS

CITY           SKY/WX    TMP DP  RH WIND       PRES   REMARKS
MOLINE         CLOUDY    80  71  74 S9        29.68S HX  84
STERLING*      MOCLDY    79  72  79 CALM      29.71S HX  82
SAVANNA*       CLOUDY    78  71  80 S7        29.68S HX  80
$$

ILZ003-004-008-010-011-017-018-230300-
NORTH CENTRAL ILLINOIS

CITY           SKY/WX    TMP DP  RH WIND       PRES   REMARKS
ROCKFORD       PTCLDY    81  70  69 SW9       29.70F HX  84
FREEPORT*      CLEAR     77  70  79 S9        29.71S
ROCHELLE*      CLOUDY    79  71  77 S7        29.72S HX  81
DE KALB*       CLOUDY    79  71  75 S12       29.72F HX  82
PERU*          CLOUDY    78  71  80 S13       29.72S
$$

ILZ005-006-012>014-019>023-230300-
NORTHEAST ILLINOIS

CITY           SKY/WX    TMP DP  RH WIND       PRES   REMARKS
CHICAGO-OHARE  MOCLDY    81  70  69 S16G22    29.71S HX  84
CHICAGO-MIDWAY CLOUDY    81  71  71 S18       29.72R HX  85
AURORA         CLOUDY    80  72  76 S20       29.73R HX  84
LANSING*       CLOUDY    78  68  72 S18       29.74S HX  80
JOLIET*        CLOUDY    79  73  82 SW8       29.74R HX  82
WAUKEGAN       MOCLDY    80  70  71 SW10      29.70R HX  83
DUPAGE AIRPORT CLOUDY    79  72  79 S21G28    29.71S HX  82
WHEELING       PTCLDY    81  73  76 S10G20    29.72S HX  86
MORRIS*        CLOUDY    77  72  83 S15       29.73R
ROMEOVILLE*    CLOUDY    77  69  74 SW17      29.74R
NORTHERLY ISL    N/A     79  69  71 S10         N/A  HX  81
$$

LMZ740>746-230300-
SOUTHERN LAKE MICHIGAN

STATION/POSITION SKY/WX   TEMP    WIND        PRES    VSBY  WAVE
                          AIR SEA DIR/SP/G                  HT/PER
                          (F)     (DEG/KT/KT) (MB)    (MI)  (FT/S)
SOUTHERN BUOY              67 61  170/ 14/ 16 1005.7          1/ 4
WILMETTE HARBOR            74 65  200/ 10/ 14   N/A           2/ 3
HARRISON CRIB              79     200/ 20/ 21   N/A
BURNHAM HARBOR             80                   N/A
CALUMET HARBOR             79     180/ 10/ 20 1006.1S
BURNS HARBOR               78     200/ 16/ 24 1007.1S
MICHIGAN CITY              78     180/ 16/ 20   N/A
MICHIGAN CITY 6N           76 68  190/ 14/ 19   N/A           2/ 3
ST. JOSEPH                 75 69  210/ 14/ 17 1006.5S         2/ 3
$$

ILZ025>027-034>036-040-047-049-050-058-095>099-230300-
WEST-CENTRAL ILLINOIS

CITY           SKY/WX    TMP DP  RH WIND       PRES   REMARKS
QUINCY         CLEAR     79  72  79 S7        29.69F HX  82
GALESBURG*     CLOUDY    77  71  81 S5        29.72R
MACOMB*        PTCLDY    78  72  82 S5        29.72F
JACKSONVILLE*  CLEAR     78  72  81 SE6       29.72S HX  80
$$

ILZ028>032-037-038-041>044-048-051>054-059>061-230300-
CENTRAL ILLINOIS

CITY           SKY/WX    TMP DP  RH WIND       PRES   REMARKS
PONTIAC        CLEAR     76  74  94 S13       29.75S
BLOOMINGTON    CLOUDY    74  71  91 S17       29.76S
DECATUR        CLOUDY    74  73  97 S12       29.76F
PEORIA         PTCLDY    78  73  84 S17G23    29.71S HX  81
LACON*         PTCLDY    77  73  87 S10G16    29.70S
LINCOLN*       PTCLDY    76  74  94 S10       29.73F
SPRINGFIELD    CLEAR     78  74  87 S8        29.73S HX  81
TAYLORVILLE    CLOUDY    74  73  97 SE12      29.75F
$$

ILZ033-039-045-046-055>057-062-063-230300-
EAST-CENTRAL ILLINOIS

CITY           SKY/WX    TMP DP  RH WIND       PRES   REMARKS
CHAMPAIGN      CLOUDY    73  71  93 SE10      29.78F FOG
RANTOUL*       DRIZZLE   74  73  96 S9        29.78F
MATTOON        CLOUDY    73  73 100 S10       29.78F
PARIS*         CLOUDY    74  71  91 S9        29.81F
$$

ILZ079-100>102-230300-
SOUTHWEST ILLINOIS

CITY           SKY/WX    TMP DP  RH WIND       PRES   REMARKS
ALTON          MOCLDY    77  72  83 SE9       29.75R
BELLEVILLE     CLOUDY    77  74  91 S6        29.76S
CAHOKIA*       CLOUDY    80  73  79 SE8       29.74S HX  84
SPARTA*        CLOUDY    77  73  88 E6        29.77S
$$

ILZ064>066-069>071-074>076-080>082-084>086-088>090-092>094-230300-
SOUTH-CENTRAL ILLINOIS

CITY           SKY/WX    TMP DP  RH WIND       PRES   REMARKS
CARBONDALE     CLOUDY    77  76  96 SE9       29.77S
CAIRO*         CLOUDY    80  76  87 SE5       29.76F HX  86
EFFINGHAM*     CLOUDY    75  74  96 SE7       29.80F
MARION         CLOUDY    79  77  94 E6        29.78F HX  83
MT. VERNON     CLOUDY    75  73  93 SE5       29.78F
CENTRALIA*     MOCLDY    76  74  96 SE6       29.76F
SALEM*         CLOUDY    76  73  90 SE8       29.77F
METROPOLIS*    CLOUDY    81  74  80 CALM      29.79S HX  86
$$

ILZ067-068-072-073-078-083-087-091-230300-
SOUTHEAST ILLINOIS

CITY           SKY/WX    TMP DP  RH WIND       PRES   REMARKS
LAWRENCEVILLE  CLOUDY    73  72  96 S6        29.81S
FLORA*         CLOUDY   N/A N/A N/A SE8       29.79F
FAIRFIELD*     CLOUDY    74  74 100 SE3       29.79S
HARRISBURG*    CLOUDY    76  75  96 E3        29.80S
ROBINSON*      CLOUDY    73  71  93 S7        29.81F
CARMI*         CLOUDY    74  74  99 SE3       29.80S
$$

ABBREVIATIONS USED IN REMARKS
   TC - TEMPERATURE IN CELSIUS
  WCI - WIND CHILL INDEX
   HX - HEAT INDEX
  VSB - VISIBILITY
$$





USA.gov is the U.S. government's official web portal to all federal, state and local government web resources and services.